This demonstration page uses our WeatherBlox Daily Observations layout. Learn more.

Left ArrowRight Arrow

Hourly Observations for December 5, 2016

Temp ( °F °C ) Dew Point ( °F °C ) Humidity (%) Winds ( mph kmh ) Pressure ( in mb ) Visibility ( mi km ) Precip ( " mm )
12:51 am 00:51 Clear 35 1.7 25 -3.9 67 67 SE 5 7 29.98 1015 10 16 N/A
1:51 am 01:51 Clear 33 0.6 23 -5 66 66 E 5 7 29.98 1015 10 16 N/A
2:51 am 02:51 Clear 32 undefined 22 -5.6 66 66 SE 6 9 29.95 1014 10 16 N/A
3:51 am 03:51 Clear 32 undefined 24 -4.4 73 73 SSE 8 13 29.92 1013 10 16 N/A
4:51 am 04:51 Clear 32 undefined 24 -4.4 73 73 N N/A 29.93 1014 10 16 N/A
5:51 am 05:51 Clear 28 -2.2 23 -5 81 81 N N/A 29.96 1014 10 16 N/A
6:51 am 06:51 Clear 29 -1.7 23 -5 78 78 E 3 6 29.98 1015 10 16 N/A
7:51 am 07:51 Sunny 35 1.7 26 -3.3 70 70 SE 5 7 29.98 1015 10 16 N/A
8:51 am 08:51 Sunny 39 3.9 27 -2.8 62 62 N N/A 29.98 1015 10 16 N/A
9:51 am 09:51 Sunny 45 7.2 27 -2.8 49 49 N N/A 29.97 1015 10 16 N/A
10:51 am 10:51 Sunny 50 10 27 -2.8 41 41 N N/A 29.95 1014 10 16 N/A
11:51 am 11:51 Sunny 55 12.8 27 -2.8 34 34 W 6 9 29.92 1013 10 16 N/A
12:51 pm 12:51 Sunny 57 13.9 26 -3.3 30 30 W 3 6 29.88 1012 10 16 N/A
1:51 pm 13:51 Sunny 60 15.6 26 -3.3 27 27 VRB 3 6 29.85 1011 10 16 N/A
2:51 pm 14:51 Sunny 61 16.1 25 -3.9 25 25 W 8 13 29.83 1010 10 16 N/A
3:51 pm 15:51 Sunny 60 15.6 25 -3.9 26 26 W 9 15 29.83 1010 10 16 N/A
4:51 pm 16:51 Sunny 57 13.9 24 -4.4 28 28 SW 6 9 29.83 1010 10 16 N/A
5:51 pm 17:51 Clear with Light Rain 56 13.3 17 -8.3 22 22 NNW 7 11 29.86 1011 10 16 N/A
6:51 pm 18:51 Clear 56 13.3 14 -10 19 19 NNW 9 15 29.87 1012 10 16 N/A
7:51 pm 19:51 Clear 52 11.1 15 -9.4 23 23 VRB 5 7 29.88 1012 10 16 N/A
8:51 pm 20:51 Clear 49 9.4 16 -8.9 27 27 SW 6 9 29.89 1012 10 16 N/A
9:51 pm 21:51 Clear 44 6.7 16 -8.9 32 32 SE 5 7 29.91 1013 10 16 N/A
10:51 pm 22:51 Clear 41 5 17 -8.3 38 38 ESE 7 11 29.91 1013 10 16 N/A
11:51 pm 23:51 Clear 39 3.9 17 -8.3 41 41 ESE 6 9 29.91 1013 10 16 N/A

Powered by AerisWeather